Location: Crescent
(42.8242°N, 73.7329°W)
Time: 11:53:16
(UTC+00:00)

Transit 4A - Pass Details

Date: 16 February 2026
Orbit: 863 x 978 km, 66.8° (Epoch: 17 March)

Event Time Altitude Azimuth Distance (km) Brightness Sun altitude
Rises 17:47:56 0° 329° (NNW) 3,607 10.6 34.3°
Reaches altitude 10° 17:50:27 10° 329° (NNW) 2,675 10.0 34.2°
Maximum altitude 17:56:44 90° 70° (ENE) 969 8.6 34.0°
Drops below altitude 10° 18:03:06 10° 151° (SSE) 2,713 11.1 33.7°
Sets 18:05:40 0° 151° (SSE) 3,661 11.6 33.5°
